Terug naar catalogus

ONEWEB-0357

ActiefCommunicatiePO
NORAD 49219·PAYLOAD·🇬🇧 United Kingdom

Gelanceerd Sep 14, 2021 vanaf Baikonur Cosmodrome

Loading…

Volgende Passages (komende 24 uur)

TLE

VersSource: CelesTrak SupGP

Epoch: Sep 14, 2026, 16:22 UTC

1 49219C 21083AK  26257.68211065 -.00001139  00000+0 -28048-2 0  2576
2 49219  87.9145 256.5800 0001784  87.6445 307.0338 13.20771866    17

Volg ONEWEB-0357 in realtime met AllMySat

Download on the App Store